Tracking 19242 objects as of 16-Aug-2018
HD Live streaming from Space Station
objects crossing your sky now

FENGYUN 1C DEB

Track FENGYUN 1C DEB now!
10-day predictions


NORAD ID: 31299
Int'l Code: 1999-025BPH
Perigee: 406.5 km
Apogee: 704.5 km
Inclination: 97.0 °
Period: 95.6 minutes
Semi major axis: 6926 km
RCS: 0.0012 m2 (small)
Launch date: May 10, 1999
Source: People's Republic of China (PRC)
Launch site: Taiyaun Space Center, China (TSC)

Note: This is SATELLITE DEBRIS
aabbcc
Your satellite tracking list
Your tracking list is empty




NASA's NSSDC Master Catalog

Two Line Element Set (TLE):
1 31299U 99025BPH 18227.77929353  .00005093  00000-0  20827-3 0  9993
2 31299  96.9890 333.2695 0215159  78.2239 284.3037 15.06026638609731
Source of the keplerian elements: AFSPC